COSMOS 1349

Satellite information

Favourite Embed

Satellite Type and Status

PAYLOADIN ORBIT

Key statistics

Satellite COSMOS 1349 at a glance.

Uptime

15736

Days in orbit

Revolutions

≈ 13.7

Per day

Orbit

LEO

Low Earth Orbit

Inclination

82.9

Latest

Satellite identification and parameters

Extended collection of information and parameters for COSMOS 1349.

Object identification

Identified? True

Debris? False

Object name: COSMOS 1349

International designator: 1982-030A

Object number (NORAD): 13127

Object ID (CCSDS): 13127

Country: COMMONWEALTH OF INDEPENDENT STATES (CIS)

Current information (Y/N): Y

RCS size: LARGE

Orbital parameters

Period: 104.804 minutes

Inclination: 82.9266 deg

SMA: 7363.419 km

Apoapsis: 1009.008 km

Periapsis: 961.561 km

RAAN: 102.5503 deg

Eccentricy: 0.0032218

Argument of periapsis: 85.495 deg

Mean anomaly: 338.8115 deg

Mean motion: 13.73989618 rev/day

Mean motion (dot): 0.00000086 rev/day2

B* drag term: 0.000074821 1/REarth

Two-line elements (TLE)

Creation date: May 8, 2025, 3:01 a.m.

Reference frame: TEME

Reference center: EARTH

Epoch: May 7, 2025, 8:58 p.m. UTC

TLE line 0: 0 COSMOS 1349

TLE line 1: 1 13127U 82030A 25127.87426514 .00000086 00000-0 74821-4 0 9991

TLE line 2: 2 13127 82.9266 102.5503 0032218 85.4950 338.8115 13.73989618159652

Live tracking on map

Real-time ground track for satellite COSMOS 1349.

In-orbit conjunctions

A list of the most updated potential collisions computed for object COSMOS 1349.

Target Orbit TCA Probability of collision Miss distance Type
FENGYUN 1C DEB SSO 2025-03-15 12:47:02 0.0001379428 204.0 (m) DEBRIS
THORAD AGENA D DEB SSO 2025-01-10 20:41:00 0.002809732 61.0 (m) DEBRIS
DELTA 1 DEB SSO 2024-06-11 00:07:13 0.002315462 216.0 (m) DEBRIS

Associated space launch

Navigation satellite providing location information for the Tsiklon-B navigation system

COSMOS 1349 was lifted into orbit during the mission ‘Kosmos-3M | Parus 32’, on board a Kosmos-3M space rocket.

The launch took place on April 8, 1982, 12:15 a.m. from 132/2.

For more information about the launch, click the button.

Launch to space Kosmos-3M | Parus 32
Kosmos-3M | Parus 32

Agency: N/A

Status: Launch Successful

Launch date: April 8, 1982, 12:15 a.m. UTC

Rocket: Kosmos-3M

Launch pad: 132/2

Location: Plesetsk Cosmodrome, Russian Federation

...

Latest news about this satellite

There are no fresh news available about this satellite. Check back as we update our databases every day.


Newsletter sign-up

Weekly statistics, charts and insights to help you stay on top of the space industry.